672  
ASUS42 KTAE 210703  
RWRTAE  
RWRTAE  
NORTH FLORIDA/SOUTH ALABAMA/SOUTHWEST GEORGIA WEATHER ROUNDUP  
NATIONAL WEATHER SERVICE TALLAHASSEE FLORIDA  
300 AM EDT SAT SEP 21 2019  
 
NOTE: "FAIR" INDICATES FEW OR NO CLOUDS BELOW 12,000 FEET WITH NO  
SIGNIFICANT WEATHER AND/OR S TO VISIBILITY
.  
 
!FLZ017-115-028-034-025-210800   
..NORTH FLORIDA
 
 
 
CITY SKY/WX TMP DP RH WIND PRES REMARKS
 
TALL INTL ARPT FAIR 73 69 87 E9 30.18F  
FSU LOVE BLDG NOT AVBL  
APALACHICOLA FAIR 80 66 62 E14 30.14F  
PERRY FAIR 71 70 97 E3 30.19R  
CROSS CITY N/A 70 67 90 NE6 30.17S  
JACKSONVILLE FAIR 68 65 90 CALM 30.18F  

 
 
!FLZ112-006-005-002-011-210800   
..FLORIDA PANHANDLE
 
 
 
CITY SKY/WX TMP DP RH WIND PRES REMARKS
 
MARIANNA FAIR 71 66 84 E7 30.18S  
BONIFAY FAIR 67 62 84 CALM 30.19F  
PANAMA CITY NW FAIR 73 63 70 NE7 30.15F  
TYNDALL AFB FAIR 74 64 71 E7 30.15S  
TYND DRONE APT FAIR 72 64 75 E8 30.16S  
DE FUNIAK SPR FAIR 70 60 70 E7 30.19S  
EGLIN AFB FAIR 75 63 65 E7 30.15S  
DESTIN FAIR 76 63 64 E8 30.15S  
HURLBURT NOT AVBL  
CRESTVIEW FAIR 65 61 87 CALM 30.18S  
PENSACOLA FAIR 75 72 90 NE5 30.14S  

 
 
!ALZ063-066-210800   
..SOUTH ALABAMA
 
 
 
CITY SKY/WX TMP DP RH WIND PRES REMARKS
 
DOTHAN FAIR 70 63 78 E6 30.23F  
OZARK CAIRNS FAIR 68 61 79 NE6 30.19S  
FT RUCKER HELI FAIR 69 63 79 CALM 30.19S  
RUCKER HELI 3 FAIR N/A N/A N/A E3 30.19S  
RUCKER HELI 2 FAIR 72 63 75 E6 30.18F  
FLORALA APT N/A 69 60 73 E5 30.20S  
ANDALUSIA FAIR 72 61 68 E3 30.18S  
TROY FAIR 69 62 78 E7 30.21S  
EUFALA NOT AVBL  
MOBILE FAIR 71 68 90 NE6 30.14F  

 
 
!GAZ120>161-210800   
..SOUTHWEST AND SOUTH CENTRAL GEORGIA
 
 
 
CITY SKY/WX TMP DP RH WIND PRES REMARKS
 
THOMASVILLE FAIR 68 64 88 CALM 30.22F  
BAINBRIDGE FAIR 68 65 90 E7 30.20S  
MOODY AFB NOT AVBL  
VALDOSTA FAIR 69 66 90 NE3 30.21S  
MOULTRIE FAIR 68 64 88 CALM 30.22F  
BLAKELY FAIR 63 61 94 CALM 30.22S  
ALBANY FAIR 71 65 81 E6 30.23F  
TIFTON FAIR N/A N/A N/A CALM 30.22F  
FITZGERALD FAIR 69 67 92 CALM 30.26S  
CORDELE CLOUDY 70 64 80 SE3 30.25F  
AMERICUS CLOUDY 72 64 78 CALM 30.25F  
HOMERVILLE FAIR 66 64 94 CALM 30.22S  

 
 
!GMZ750-755-770-775-210800   
..COASTAL AND BUOY OBS
 
 
 
STATION/POSITION TIME TEMP WIND PRES VSBY WAVE
 
AIR SEA DIR/SP/G HT/PER  
(UTC) (F) (DEG/KT/KT) (MB) (MI) (FT/S)  
KEATON BEACH 0600 71 40/ 5/ 7 1021.8F  
CEDAR KEY 0600 74 60/ 10/ 11 1021.2F  
C TOWER 0600 80 110/ 24/ 26 1020.8R  
APALACHICOLA BUO 0640 81 90/ 19/ 25 1019.9F  
PANAMA CITY BUOY 0640 85 120/ 19/ 23 1019.0F  
MOBILE BUOY 0650 84 100/ 19/ 25 1019.0F 6/ 7  
ORANGE BCH AL BU 0640 83 85 80/ 14/ 19 1019.9F  

 
 
 
CLICK HERE TO GO TO PREVIOUS BULLETINS.

The Nexlab FL Page
The Nexlab GA Page
The Nexlab AL Page Main Text Page